Location: Smedley
(39.7833°S, 176.3500°E)
Time: 19:40:29
(UTC+00:00)

Daily predictions for brighter satellites

Satellite Brightness Start Highest point End
(mag) Time Altitude Azimuth Time Altitude Azimuth Time Altitude Azimuth
ARIANE 5 R/B 3.5 12:00:08 10° SSE 12:03:35 44° ESE 12:03:35 44° ESE
Cosmos 1821 Rocket 4.1 12:08:38 59° WNW 12:09:28 65° W 12:15:41 10° S
Cosmos 44 Rocket 3.8 12:13:30 52° ESE 12:13:30 52° ESE 12:17:25 10° SE
Cosmos 1934 Rocket 4.3 12:15:09 49° ENE 12:15:50 51° E 12:21:50 10° SSE
CZ-2C R/B 3.7 12:19:21 51° W 12:19:25 51° W 12:25:07 10° SSW
Cosmos 1727 Rocket 3.8 12:14:11 10° S 12:20:27 82° W 12:21:06 72° NNW
BlueWalker 3 3.7 12:23:25 29° S 12:23:25 29° S 12:26:06 10° SSE
DELTA 2 R/B (1) 3.7 12:24:49 61° E 12:24:49 61° E 12:29:25 10° E
Cosmos 1703 Rocket 4.1 12:21:21 10° S 12:24:57 58° S 12:24:57 58° S
NOSS 3-4 (A) 4.0 12:21:56 10° SW 12:27:58 44° WNW 12:27:58 44° WNW
NOSS 3-4 (C) 3.9 12:22:04 10° SW 12:28:08 44° WNW 12:28:08 44° WNW
Meteor 2-15 Rocket 4.3 12:29:42 71° NNW 12:30:22 82° W 12:36:37 10° S
Meteor 2-8 Rocket 4.4 12:29:56 64° NE 12:30:38 70° E 12:36:51 10° SSE
RESURS DK-1 4.2 12:28:11 10° S 12:31:27 23° ESE 12:31:52 23° ESE
Meteor 2-5 Rocket 3.9 12:30:03 10° SSW 12:35:59 64° W 12:36:16 63° WNW
MSX 4.3 12:38:07 46° ENE 12:39:25 57° ESE 12:45:08 10° S
ISS -0.2 12:38:21 10° SSW 12:39:56 13° S 12:41:32 10° SE
Meteor 1-16 Rocket 4.0 12:40:04 80° W 12:40:07 80° W 12:45:33 10° S
Cosmos 2123 Rocket 3.9 12:34:15 10° S 12:40:35 76° E 12:41:36 62° NE
Cosmos 1302 Rocket 4.4 12:36:16 10° SSW 12:40:45 51° WSW 12:40:45 51° WSW
Meteor 2-21 Rocket 4.3 12:42:32 10° S 12:48:47 83° W 12:49:33 70° NNW
CZ-2D R/B 4.2 12:45:17 12° ENE 12:48:50 22° ESE 12:52:56 10° SSE
Cosmos 1933 Rocket 4.3 12:51:51 47° SW 12:51:51 47° SW 12:55:37 10° S
ATLAS 5 CENTAUR R/B 3.3 12:48:09 10° SW 12:51:12 26° WSW 12:51:12 26° WSW
ACS3 Solar Sail 4.3 12:52:02 10° E 12:55:15 15° ESE 12:58:27 10° SSE
Cosmos 1340 Rocket 4.2 12:57:03 32° ESE 12:57:03 32° ESE 12:59:44 10° SSE
Cosmos 1269 Rocket 4.1 12:56:37 64° ENE 12:56:43 64° ENE 13:02:00 10° SSE
Cosmos 2292 Rocket 3.8 12:55:25 10° S 12:59:48 84° ESE 12:59:48 84° ESE
ALOS 2 3.1 12:56:11 10° S 13:00:09 52° SW 13:00:09 52° SW
Cosmos 1535 Rocket 4.5 13:04:28 59° N 13:05:46 82° E 13:12:15 10° S
Cosmos 921 Rocket 3.8 13:10:48 42° SW 13:10:48 42° SW 13:14:17 10° S
USA 215 3.2 13:03:55 10° SE 13:10:29 69° NE 13:11:53 55° N
ARGOS Delta rocket 3.7 13:14:33 86° NNW 13:14:38 88° WNW 13:19:42 10° S
Cosmos 1869 Rocket 4.5 13:16:32 39° WSW 13:16:32 39° WSW 13:20:22 10° S
In-Cosmos 22 Rocket 4.3 13:10:35 10° S 13:16:29 81° E 13:17:43 58° NNE
CZ-2C R/B 3.4 13:13:00 10° SSE 13:18:14 43° E 13:19:27 38° NE
ADEOS II 3.7 13:20:22 14° ENE 13:23:57 30° ESE 13:28:30 10° S
Cosmos 1833 Rocket 2.5 13:19:36 10° SSW 13:25:15 71° WNW 13:25:48 66° NNW
Cosmos 1733 Rocket 3.0 13:28:45 79° SW 13:28:45 79° SW 13:33:06 10° S
Resurs 1-4 Rocket 2.8 13:26:25 31° NE 13:28:37 51° ESE 13:33:46 10° S
Cosmos 1943 Rocket 2.1 13:29:05 64° N 13:30:00 82° ENE 13:35:42 10° SSE
Cosmos 2278 Rocket 2.1 13:33:18 60° N 13:34:21 82° ENE 13:40:06 10° SSE
Cosmos 2082 Rocket 3.9 13:29:27 10° S 13:34:32 31° ESE 13:39:32 10° ENE
SJ 16-02 3.0 13:39:40 21° ENE 13:40:30 22° E 13:43:53 10° SE
FENGYUN 3A 3.6 13:39:47 58° NW 13:40:31 65° WNW 13:45:57 10° SSW
IDEFIX/ARIANE 42P 3.1 13:40:55 41° W 13:40:55 41° W 13:45:55 10° SSW
Cosmos 2346 Rocket 4.4 13:36:18 10° S 13:42:36 88° W 13:44:35 46° N
Cosmos 1447 Rocket 4.4 13:36:34 10° S 13:42:53 88° E 13:45:10 43° N
Cosmos 2242 Rocket 3.7 13:39:49 10° SSW 13:44:04 62° W 13:44:04 62° W
SeaSat 1 2.3 13:46:00 61° N 13:46:49 77° WNW 13:51:47 10° SSW
ADEOS Rocket 4.2 13:41:22 10° NE 13:47:49 44° ESE 13:53:43 10° S
Cosmos 1908 Rocket 4.2 13:48:19 41° NE 13:49:08 46° E 13:53:22 10° SSE
Cosmos 1153 Rocket 4.5 13:48:06 45° N 13:50:14 87° W 13:56:40 10° S
NPP 4.1 13:51:37 41° WNW 13:51:56 41° W 13:57:05 10° SSW
Cosmos 1140 Rocket 4.1 13:52:31 38° W 13:53:34 43° WSW 13:58:36 10° S
Cosmos 1763 Rocket 4.0 13:48:27 10° S 13:53:40 57° ESE 13:57:05 21° NE
Cosmos 1932 4.4 13:55:30 45° NNW 13:57:34 78° ENE 14:03:49 10° SE
Timation 2 Rocket 4.0 13:56:10 42° NW 13:58:04 63° WSW 14:04:12 10° SSE
ALOS 2.5 13:58:30 36° NE 14:00:15 65° ESE 14:04:51 10° S
Cosmos 1674 Rocket 3.5 14:01:14 10° S 14:05:46 82° W 14:06:34 59° N
Cosmos 839 Rocket 4.5 14:01:01 10° SW 14:06:39 38° WNW 14:07:24 37° NW
RESURS DK-1 4.1 14:05:25 10° SW 14:07:07 20° WSW 14:07:07 20° WSW
DELTA 2 R/B (1) 3.4 14:05:30 15° W 14:10:12 75° NNW 14:15:47 10° ENE
BREEZE-M DEB (TANK) 4.1 14:07:35 10° WSW 14:14:38 44° SSE 14:17:15 10° E
NOAA 11 4.2 14:12:59 42° NNW 14:14:40 60° WNW 14:20:10 10° SSW
H-2A R/B 2.9 14:10:33 12° NE 14:15:21 52° ESE 14:20:39 10° S
Cosmos 1378 Rocket 4.0 14:12:41 10° SSW 14:16:45 40° W 14:16:51 40° W
Cosmos 1025 Rocket 2.9 14:12:52 10° S 14:17:18 83° W 14:18:30 48° N
ISS -1.8 14:14:27 10° SW 14:17:34 31° SSE 14:20:40 10° E
Cosmos 2173 Rocket 4.0 14:15:05 34° N 14:18:08 87° W 14:24:38 10° S
H-2A R/B 2.0 14:17:29 38° NNE 14:18:57 74° ESE 14:22:59 10° S
Cosmos 2100 Rocket 4.0 14:16:46 34° NNW 14:19:47 82° W 14:26:16 10° S
Lacrosse 5 rocket 3.5 14:21:01 10° NE 14:21:18 10° ENE 14:21:59 10° ENE
Cosmos 407 Rocket 4.0 14:20:41 35° WNW 14:22:25 48° WSW 14:27:39 10° S
Cosmos 304 Rocket 4.0 14:23:53 35° N 14:25:46 62° ENE 14:30:31 10° SSE
Cosmos 540 Rocket 3.4 14:21:04 10° SSW 14:26:17 86° WNW 14:29:35 23° NNE
CZ-2D R/B 2.4 14:26:32 36° NNW 14:28:22 51° W 14:33:45 10° SSW
Cosmos 1190 Rocket 3.9 14:31:45 36° NNW 14:33:58 84° WSW 14:39:15 10° SSE
Cosmos 1725 Rocket 4.0 14:30:09 24° N 14:34:03 80° E 14:40:20 10° S
Cosmos 1954 Rocket 4.0 14:33:02 32° N 14:35:30 82° ENE 14:40:50 10° SSE
ACS3 Solar Sail 1.8 14:32:06 16° NNE 14:37:14 89° WNW 14:43:26 10° SSW
ATLAS 2AS CENTAUR R/B 4.4 14:33:38 10° SSW 14:40:28 38° SE 14:47:15 10° ENE
Cosmos 676 Rocket 4.2 14:37:59 27° N 14:40:51 68° ENE 14:46:07 10° SSE
AQUA 3.9 14:38:26 15° NNE 14:42:23 76° ESE 14:47:09 10° S
Cosmos 1300 Rocket 3.5 14:42:02 35° NNW 14:43:49 75° W 14:48:17 10° S
USA 305 3.4 14:43:10 25° WSW 14:43:55 29° SSW 14:47:05 10° SSE
Cosmos 1441 Rocket 4.3 14:43:35 10° SW 14:45:59 24° W 14:45:59 24° W
H-2A R/B 3.7 14:43:03 10° SSE 14:46:42 34° E 14:49:41 14° NNE
USA 215 4.3 14:47:10 10° SE 14:53:13 40° SSW 14:59:13 10° W
Iridium 4 Rocket 4.0 14:48:19 14° N 14:53:19 72° E 14:59:13 10° S
Cosmos 1459 Rocket 4.3 14:51:09 26° NW 14:54:18 47° WSW 15:00:13 10° S
Cosmos 841 Rocket 4.3 14:51:11 10° S 14:56:15 52° ESE 15:01:18 10° NE
Cosmos 2221 Rocket 4.4 14:52:46 10° SSW 14:56:56 35° W 14:58:32 27° NW
CZ-2C R/B 4.0 14:53:44 10° SSW 14:58:10 26° WSW 15:00:54 17° WNW
Envisat 3.9 14:58:06 25° NW 14:59:44 30° W 15:04:14 10° SW
Cosmos 2016 Rocket 4.0 14:57:10 21° NNW 15:01:19 68° W 15:07:29 10° S
Cosmos 1656 Rocket 3.6 14:59:46 24° NW 15:03:07 71° WSW 15:08:36 10° SSE
ADEOS II 2.8 15:01:10 24° NW 15:03:23 33° W 15:08:09 10° SSW
ASTEX 1 3.9 14:58:53 10° SSE 15:03:48 59° E 15:08:37 10° N
Resurs 1-4 Rocket 3.5 15:07:27 18° WNW 15:08:38 19° W 15:12:25 10° SW
COSMOS 2406 3.2 15:02:52 10° SSW 15:08:42 90° ESE 15:14:25 10° NNE
Cosmos 2251 Rocket 4.4 15:06:32 20° WNW 15:09:26 35° WSW 15:14:15 10° S
Cosmos 2369 Rocket 2.5 15:06:15 16° N 15:10:52 66° ENE 15:16:31 10° SSE
Cosmos 1943 Rocket 4.2 15:11:03 10° W 15:14:26 16° SW 15:17:52 10° SSW
Cosmos 1782 Rocket 4.3 15:13:32 22° NW 15:15:46 36° WSW 15:19:55 10° S
Cosmos 968 Rocket 3.7 15:11:30 14° N 15:15:52 69° ENE 15:21:01 10° SSE
ARGOS 3.2 15:10:34 10° NNE 15:15:56 83° ESE 15:21:23 10° SSW
Cosmos 220 Rocket 4.1 15:13:58 10° SSW 15:18:05 69° ESE 15:22:06 10° NNE
SJ 16-02 2.5 15:16:12 19° WNW 15:18:26 29° WSW 15:22:15 10° S
Cosmos 2082 Rocket 2.7 15:13:21 10° SW 15:18:38 38° WNW 15:23:50 10° N
Cosmos 2278 Rocket 4.2 15:15:41 10° W 15:19:08 16° SW 15:22:38 10° SSW
Cosmos 1812 1.9 15:19:04 24° NNW 15:20:40 71° W 15:23:36 10° S
Cosmos 371 Rocket 4.1 15:21:19 18° WNW 15:24:19 36° WSW 15:28:47 10° S
USA 267 3.2 15:18:35 10° NE 15:25:09 79° NW 15:31:47 10° SW
Cosmos 2058 3.8 15:22:12 10° S 15:26:04 48° E 15:29:53 10° NNE
SL-08 RB Rocket 4.3 15:21:56 10° NNE 15:26:19 60° ESE 15:30:49 10° S
Cosmos 1869 3.5 15:25:22 19° NW 15:27:40 44° W 15:31:15 10° S
USA 276 4.1 15:26:43 10° SW 15:29:25 29° SSE 15:32:12 10° E
Spot 2 4.0 15:25:58 10° SSE 15:30:04 74° ENE 15:34:03 10° N
Cosmos 1975 Rocket 3.3 15:28:13 10° SSW 15:32:25 48° W 15:36:34 10° NNW
ADEOS Rocket 4.0 15:27:52 12° NNW 15:33:20 32° W 15:38:58 10° SW
Cosmos 1400 Rocket 2.7 15:30:49 10° N 15:34:31 87° E 15:38:23 10° S
ALOS 4.2 15:36:33 11° WNW 15:37:37 12° W 15:39:12 10° WSW
Cosmos 1741 Rocket 4.1 15:32:29 10° NNW 15:37:42 77° ENE 15:42:57 10° SSE
MOZ.5/SAFIR/RUBIN 5/SL-8 3.8 15:35:25 10° S 15:40:08 72° WSW 15:44:48 10° NNW
CZ-2C R/B 2.2 15:35:30 10° N 15:40:13 76° WNW 15:44:53 10° SSW
Cosmos 2263 4.2 15:41:46 10° NNW 15:47:25 84° WSW 15:53:06 10° SSE
Cosmos 2297 3.9 15:46:05 10° NW 15:51:36 60° WSW 15:57:19 10° SSE
ISS -3.0 15:51:15 10° WSW 15:54:21 32° NW 15:57:25 10° NNE
H-2A R/B 3.5 15:51:03 10° NW 15:54:54 20° W 15:58:50 10° SW
DELTA 2 R/B (1) 4.3 15:51:16 10° W 15:56:12 33° NNW 16:01:08 10° NNE
Okean 1 Rocket 3.5 15:52:54 10° N 15:57:18 66° E 16:01:47 10° SSE
Lacrosse 5 rocket 1.1 15:54:37 11° NW 15:57:47 59° SW 16:01:12 10° SE
Sich 1 Rocket 4.0 15:53:35 10° N 15:57:56 67° E 16:02:24 10° SSE
Cosmos 332 Rocket 4.0 15:55:35 10° NNW 16:00:19 59° WSW 16:05:09 10° SSE
Okean 2 Rocket 3.2 16:00:11 10° N 16:04:43 84° W 16:09:18 10° S
Cosmos 1602 4.1 16:03:10 10° SSW 16:05:50 28° W 16:08:28 10° NNW
Cosmos 1850 Rocket 4.4 16:04:56 10° NW 16:10:06 51° WSW 16:15:21 10° S
Lacrosse 4 Rocket 1.3 16:06:22 10° NNW 16:10:22 83° WSW 16:14:29 10° SSE
IRS-1D 4.1 16:05:14 10° NNE 16:10:29 68° ESE 16:15:51 10° S
CENTAUR R/B 3.1 16:02:42 10° NW 16:11:30 80° SW 16:18:40 10° SSE
